Location: Strawberry
(45.6646°N, 111.9596°W)
Time: 18:13:56
(UTC+00:00)

TIGRISAT - Visible Passes

Search period start: 30 November 2022 00:00
Search period end: 10 December 2022 00:00
Orbit: 603 x 685 km, 97.7° (Epoch: 29 November)

Date Brightness Start Highest point End Pass type
(mag) Time Alt. Az. Time Alt. Az. Time Alt. Az.
30 Nov ? 00:39:08 10° NE 00:42:58 25° E 00:46:48 10° SSE visible
30 Nov ? 02:15:31 11° N 02:19:40 39° WNW 02:24:00 10° SW visible
30 Nov ? 11:39:33 10° ESE 11:43:08 26° ENE 11:44:31 22° NE visible
30 Nov ? 13:15:41 10° SSW 13:19:36 34° W 13:22:10 19° NW visible
01 Dec ? 01:03:19 10° NNE 01:07:46 42° E 01:12:12 10° S visible
01 Dec ? 02:40:28 10° NNW 02:44:08 24° WNW 02:47:50 10° WSW visible
01 Dec ? 12:03:29 10° SE 12:07:35 44° ENE 12:09:16 30° NNE visible
01 Dec ? 13:41:17 10° SW 13:44:27 19° W 13:46:55 13° NW visible
02 Dec ? 01:27:48 10° NNE 01:32:28 75° E 01:37:09 10° S visible
02 Dec ? 03:05:56 10° NNW 03:08:30 15° WNW 03:11:04 10° W visible
02 Dec ? 12:27:49 10° SSE 12:32:08 79° ENE 12:34:01 34° N visible
02 Dec ? 14:08:12 10° WSW 14:09:22 11° W 14:10:33 10° WNW visible
03 Dec ? 00:17:18 10° NE 00:20:04 15° E 00:22:51 10° SE visible
03 Dec ? 01:52:43 11° N 01:57:06 63° WNW 02:01:43 10° SSW visible
03 Dec ? 11:17:52 10° E 11:20:39 17° ENE 11:21:08 16° NE visible
03 Dec ? 12:52:31 10° S 12:56:48 58° W 12:58:47 30° NNW visible
04 Dec ? 00:41:01 10° NE 00:44:57 26° E 00:48:53 10° SSE visible
04 Dec ? 02:17:40 12° N 02:21:37 37° WNW 02:25:55 10° SW visible
04 Dec ? 11:41:20 10° SE 11:45:01 27° ENE 11:45:54 25° NE visible
04 Dec ? 13:17:38 10° SSW 13:21:32 32° W 13:23:33 22° NW visible
05 Dec ? 01:05:14 10° NNE 01:09:44 45° E 01:14:13 10° S visible
05 Dec ? 02:42:36 11° NNW 02:46:04 23° WNW 02:49:42 10° WSW visible
05 Dec ? 12:05:18 10° SE 12:09:29 47° ENE 12:10:40 37° NNE visible
05 Dec ? 13:43:18 10° SW 13:46:23 19° W 13:48:19 15° WNW visible
06 Dec ? 01:29:52 11° NNE 01:34:26 79° ESE 01:39:07 10° S visible
06 Dec ? 03:07:59 10° NNW 03:10:25 14° WNW 03:12:50 10° W visible
06 Dec ? 10:57:12 10° ENE 10:57:47 11° ENE 10:57:47 11° ENE visible
06 Dec ? 12:29:40 10° SSE 12:34:03 84° ENE 12:35:26 44° N visible
06 Dec ? 14:10:31 10° W 14:11:20 10° W 14:12:08 10° WNW visible
07 Dec ? 00:19:05 10° NE 00:22:03 16° E 00:24:59 10° SE visible
07 Dec ? 01:54:47 12° N 01:59:02 60° WNW 02:03:38 10° SSW visible
07 Dec ? 11:19:34 10° ESE 11:22:32 18° ENE 11:22:34 18° ENE visible
07 Dec ? 12:54:25 10° S 12:58:42 55° W 13:00:12 37° NW visible
08 Dec ? 00:42:53 10° NE 00:46:55 28° E 00:50:55 10° SSE visible
08 Dec ? 02:19:42 12° N 02:23:33 35° WNW 02:27:47 10° SW visible
08 Dec ? 11:43:05 10° SE 11:46:55 29° ENE 11:47:20 29° NE visible
08 Dec ? 13:19:33 10° SSW 13:23:28 31° W 13:25:00 25° WNW visible
09 Dec ? 01:07:08 10° NNE 01:11:41 48° E 01:16:11 10° S visible
09 Dec ? 02:44:37 11° NNW 02:47:59 22° WNW 02:51:31 10° WSW visible
09 Dec ? 12:07:06 10° SE 12:11:23 50° ENE 12:12:07 45° NE visible
09 Dec ? 13:45:16 10° SW 13:48:18 18° W 13:49:46 16° WNW visible
